Location: St. Louis
(38.6270°N, 90.1994°W)
Time: 01:57:52
(UTC-06:00)

Courier 1B Rocket - Pass Details

Date: 06 December 2021
Orbit: 920 x 1202 km, 28.2° (Epoch: 16 January)

Event Time Altitude Azimuth Distance (km) Brightness Sun altitude
Rises 19:28:48 0° 206° (SSW) 3,850 8.5 -32.4°
Reaches altitude 10° 19:33:31 10° 178° (S) 2,824 7.4 -33.3°
Enters shadow 19:33:47 10° 176° (S) 2,788 7.4 -33.3°
Maximum altitude 19:36:11 12° 155° (SSE) 2,605 - -33.8°
Drops below altitude 10° 19:38:47 10° 132° (SE) 2,748 - -34.3°
Sets 19:43:12 0° 104° (ESE) 3,640 - -35.2°
